GRBBeta
1 60237U 24128C   26121.29155936  .00005183  00000-0  35735-3 0  9990
2 60237  61.9921  20.7511 0046548 124.7844 235.7643 15.06258621 99207
Curium One
1 60242U 24128H   26121.21970981  .00011559  00000-0  66911-3 0  9997
2 60242  61.9806  12.0285 0046086 121.3274 239.2345 15.11756172 99358
ROBUSTA-3A
1 60243U 24128J   26121.29112746  .00011439  00000-0  67661-3 0  9993
2 60243  61.9884  13.9914 0047200 118.8052 241.7794 15.10943732 99331
CatSat
1 60246U 24125J   26121.25880772  .00073075  00000-0  11189-2 0  9997
2 60246  97.2133 333.3215 0022920   0.2143 359.9116 15.53804204100096
HYPERVIEW-1G (RS66S)
1 61772U 24199AP  26121.29044524  .00122104  00000-0  11806-2 0  9998
2 61772  97.2971 359.0066 0008962  93.8181 266.4104 15.65995950127315
AO-123
1 61781U 24199AY  26121.23870112  .00010804  00000-0  31936-3 0  9992
2 61781  97.3066 350.3414 0015758 114.7889 245.4995 15.34982071126726
JINJUSat 1B
1 63210U 25052A   26121.14083566  .00023439  00000-0  75857-3 0  9997
2 63210  97.4058  17.8749 0001448 224.1833 135.9293 15.32046903 62893
NUSHSAT 1
1 63211U 25052B   26121.25439912  .00029612  00000-0  89552-3 0  9996
2 63211  97.4039  18.4060 0001101 224.8807 135.2347 15.34163880 62945
TEVEL2-4
1 63213U 25052D   26121.27346158  .00026596  00000-0  83534-3 0  9991
2 63213  97.3959  17.6356 0000290 297.5312  62.5901 15.32981635 62922
TEVEL2-5
1 63214U 25052E   26120.70152576  .00018680  00000-0  59139-3 0  9997
2 63214  97.3959  17.0242 0000402 308.3019  51.8187 15.32799831 62833
TEVEL2-6
1 63215U 25052F   26120.64742009  .00019145  00000-0  60679-3 0  9995
2 63215  97.3962  16.9554 0000497 308.8887  51.2311 15.32759360 62829
TEVEL2-1
1 63217U 25052H   26120.66088834  .00018836  00000-0  60601-3 0  9999
2 63217  97.3936  16.6470 0001054 344.2908  15.8301 15.32282302 62815
TEVEL2-3
1 63218U 25052J   26120.65708406  .00018565  00000-0  59650-3 0  9994
2 63218  97.3940  16.6597 0001080 343.6471  16.4736 15.32327642 62814
TEVEL2-2
1 63219U 25052K   26120.66141397  .00018724  00000-0  60232-3 0  9991
2 63219  97.3937  16.6490 0001079 344.9311  15.1898 15.32287401 62811
TEVEL2-9
1 63237U 25052AD  26121.16801952  .00023407  00000-0  79527-3 0  9998
2 63237  97.3998  16.6267 0004692 325.1315  34.9617 15.30467898 62837
TEVEL2-7
1 63238U 25052AE  26121.13509283  .00023037  00000-0  78908-3 0  9999
2 63238  97.4000  16.5285 0004826 324.9321  35.1602 15.30206811 62827
TEVEL2-8
1 63239U 25052AF  26121.14281452  .00022635  00000-0  77585-3 0  9999
2 63239  97.3997  16.5147 0004795 326.5338  33.5599 15.30188164 62827
HYDRA-W
1 63490U 25052BL  26113.93882235  .05662091  24406-5  29537-2 0  9997
2 63490  97.3690  18.2798 0008685 203.5899 156.4993 16.20186780 62336
HADES-ICM (SO-125)
1 63492U 25052BN  26121.18628197  .00635941  00000-0  30472-2 0  9998
2 63492  97.3818  24.3310 0004908 153.9565 206.1951 15.81085461 63361
SPIRONE
1 66657U 25274H   26121.28741204  .00003353  00000-0  32466-3 0  9998
2 66657  97.7478  51.2597 0012529 162.6541 197.5109 14.93352735 23220
K-HERO
1 66660U 25274L   26120.76939208  .00001907  00000-0  18496-3 0  9997
2 66660  97.7485  50.8751 0014115 169.8119 190.3390 14.93781133 23155
SNUGLITE-III DURI
1 66661U 25274M   26121.29461904  .00002235  00000-0  21545-3 0  9994
2 66661  97.7480  51.4116 0014773 169.5995 190.5534 14.93843439 23231
SilverSat
1 66909U 98067XV  26113.44966717  .07226154  12288-4  11979-2 0  9998
2 66909  51.6027 190.0749 0007952 333.4666  26.5949 16.32457272 22308
SAKHACUBE-CHOLBON
1 67290U 25313AU  26121.16192884  .00015328  00000-0  63383-3 0  9994
2 67290  97.3950 196.8133 0010328 154.6168 205.5578 15.24014729 18810
RS95S (QMR-KWT-2)
1 67291U 25313AV  26121.18742326  .00020234  00000-0  81001-3 0  9998
2 67291  97.3947 196.9296 0010191 153.5443 206.6317 15.25046806 18826
Ten-Koh2
1 68261U 25241B   26120.39561297  .00006717  00000-0  29306-3 0  9994
2 68261  51.6489 187.0004 0005788 350.6255   9.4613 15.23280865  7620
JACK-002
1 68417U 26067B   26121.12947887  .00007898  00000-0  38269-3 0  9998
2 68417  97.4537  80.3343 0004160  87.6654 272.5057 15.18796631  4808
DISCO 2
1 68431U 26067R   26121.13892710  .00011507  00000-0  56259-3 0  9990
2 68431  97.4575  80.3374 0003697 126.5027 233.6548 15.18377000  4809
HADES-SA (SpinnyONE)
1 68446U 26067AG  26121.16355414  .00026761  00000-0  13345-2 0  9990
2 68446  97.4384  80.2319 0005209 223.3384 136.7441 15.17493626  4799
PARUS-6U1
1 68456U 26067AS  26121.16582089  .00008179  00000-0  41680-3 0  9998
2 68456  97.4524  80.2815 0004443 210.3595 149.7382 15.17021757  4808
SAL-E
1 68458U 26067AU  26121.16584270  .00011435  00000-0  58008-3 0  9995
2 68458  97.4451  80.2529 0004369 222.3219 137.7678 15.17084485  4806
FSI-SAT 2
1 68792U 26088A   26115.68414791  .00000849  00000-0  61705-4 0  9995
2 68792  97.4990 266.2992 0012809 287.5176  72.4651 15.06389719   389
OrigamiSat 2
1 68795U 26088D   26113.82356135  .00001590  00000-0  10758-3 0  9994
2 68795  97.5008 264.4888 0014430 266.4157  93.5420 15.07861282   103
ARICA 2
1 68796U 26088E   26113.82352201  .00001593  00000-0  10752-3 0  9992
2 68796  97.4989 264.4863 0014541 264.6248  95.3321 15.07951070   103
WASEDA-SAT-ZERO-II
1 68797U 26088F   26113.82350997  .00001596  00000-0  10767-3 0  9992
2 68797  97.5012 264.4822 0014814 262.4592  97.4954 15.07975758   102
MANGARO-II-Piscus
1 68798U 26088G   26113.82334568  .00001591  00000-0  10611-3 0  9992
2 68798  97.4999 264.4888 0017891 266.9056  93.0125 15.08353756   101
IO-86
1 40931U          25360.30710720  .00000000  00000-0  12800-3 0    00
2 40931   6.0006 332.5373 0012733 338.8432   8.1437 14.79075515    01
LILIUM-4                
1 71922C 26067AC  26089.50133053 -.00014632  00000+0 -74472-3 0    04
2 71922  97.4497  49.1617 0004341   5.9603 355.7042 15.16896692    16
